Theta_e
319 318 318 313 313 310 308 309 313 313 314 317 319 328 330 328 331 334 335 341 341 337 340 343 344 341 340 340 337 337 339 340 339 339 340 340 339 340 337 334 331 330 329 331 332 333 329 334 336
318 316 314 311 311 308 308 310 315 314 316 315 314 316 325 334 334 336 338 341 340 338 340 343 344 341 339 339 337 336 336 337 338 339 338 337 336 335 334 333 332 330 329 329 331 331 329 331 331
319 316 316 312 310 310 309 311 313 315 313 314 315 312 316 329 337 337 337 341 340 340 340 341 342 341 338 337 337 335 336 335 337 338 336 335 335 333 333 332 331 329 328 329 331 330 329 329 330
317 313 311 316 311 311 309 312 312 314 313 311 313 315 313 315 327 336 337 339 340 340 339 340 341 341 338 337 335 335 336 337 337 333 335 334 334 333 332 331 330 328 328 328 329 328 329 328 329
312 311 314 314 313 312 310 309 311 314 313 313 312 313 315 320 333 336 338 339 340 339 338 340 341 341 339 338 336 336 335 335 335 334 334 334 333 332 331 330 329 328 327 328 328 329 328 326 329
315 309 312 312 310 311 310 310 311 313 312 312 313 312 313 313 334 336 338 339 339 339 337 339 340 340 338 335 336 334 336 333 335 335 333 333 332 331 330 329 328 328 327 327 328 327 328 329 329
315 313 311 308 310 311 311 309 311 313 313 314 312 314 313 317 333 336 337 338 340 339 338 339 338 340 340 337 335 336 336 335 337 336 333 332 332 330 329 328 328 327 326 326 327 326 327 329 326
311 312 315 313 313 313 312 310 311 312 314 311 313 316 316 319 332 336 337 337 339 340 339 338 339 339 340 339 338 336 334 334 338 335 334 332 331 329 328 326 327 327 326 325 326 326 327 326 324
311 318 316 313 314 313 310 313 310 311 313 311 312 312 312 320 329 328 331 335 337 339 339 338 338 338 338 338 339 337 336 335 338 336 333 331 330 328 327 325 326 326 325 324 325 325 328 325 323
317 317 315 310 311 311 311 312 312 314 314 315 313 311 312 323 322 323 323 325 329 331 334 338 337 337 337 337 337 337 336 336 338 337 334 331 329 327 325 325 325 324 325 323 325 323 327 324 326
314 316 311 310 310 311 313 315 312 315 316 315 316 314 313 321 322 322 321 320 320 317 318 326 338 337 337 337 336 337 336 336 336 337 335 331 329 327 323 325 324 324 323 324 327 325 326 323 324
317 314 312 313 313 315 316 315 315 314 316 314 314 313 313 313 319 318 319 319 319 319 317 317 321 338 338 338 337 337 337 336 336 337 335 332 329 327 321 324 324 323 322 326 326 324 324 323 325
317 315 313 314 315 314 314 316 315 314 314 312 312 312 314 314 313 314 314 314 314 316 317 318 320 326 337 339 338 338 337 337 336 337 336 333 330 326 321 324 324 323 322 326 326 324 324 325 326
314 315 314 313 314 314 315 314 314 315 314 313 313 314 313 313 313 312 312 312 313 314 314 315 320 323 332 338 339 337 337 337 336 336 336 334 330 327 321 323 324 323 321 324 325 324 324 325 325
314 316 313 312 313 315 313 316 314 314 312 312 312 312 312 312 311 312 313 313 314 314 314 315 317 322 325 334 337 337 337 336 336 336 335 334 331 327 321 323 323 322 321 322 324 324 323 324 325
315 314 316 310 312 313 312 312 308 310 312 313 310 310 310 311 311 311 312 312 313 313 313 315 316 318 321 328 333 336 336 336 335 334 335 333 330 329 322 322 322 322 321 323 323 323 322 325 326
313 313 313 311 311 312 312 311 308 309 310 311 310 310 310 311 310 309 311 311 312 312 313 313 314 316 320 326 331 333 334 335 334 332 333 332 329 326 323 322 322 322 321 322 323 322 323 325 324
313 315 308 309 307 309 313 312 311 310 309 309 308 308 308 309 310 310 311 311 311 311 312 313 314 317 320 326 328 329 330 332 331 330 331 331 328 327 322 322 322 321 321 322 323 323 323 324 323
307 310 310 308 308 310 309 308 307 307 307 309 309 309 309 309 308 307 308 309 308 307 309 311 314 319 321 322 323 323 324 326 326 327 328 327 327 326 323 322 322 321 320 321 322 322 322 322 320
311 311 312 310 309 310 309 310 308 308 308 308 307 307 307 308 306 306 305 307 306 308 309 312 315 318 320 321 323 323 323 323 324 323 323 324 324 325 323 322 321 321 319 320 320 321 322 320 321
315 315 312 312 310 309 309 308 305 304 304 303 303 302 302 305 306 306 304 305 307 310 310 312 314 316 318 319 320 321 321 318 318 319 320 320 321 322 323 322 320 320 320 319 318 320 320 320 320
314 312 312 312 312 313 305 306 306 305 302 301 300 298 298 300 303 304 305 309 313 312 312 314 316 316 318 319 318 319 319 317 317 317 317 319 320 320 321 322 319 319 320 318 319 319 319 320 319
314 311 312 312 312 311 311 312 309 301 302 297 296 296 297 299 302 305 317 316 315 314 314 314 316 316 316 317 318 317 317 316 315 316 316 317 318 319 319 321 319 318 318 319 316 317 320 320 320
309 310 310 311 313 313 308 311 307 300 296 295 294 294 295 298 301 302 307 317 315 315 315 315 316 316 316 316 316 317 316 316 316 317 317 316 317 318 319 319 317 315 316 315 318 316 317 319 318
311 312 313 314 315 310 300 311 301 297 294 293 292 292 293 296 298 301 302 306 317 317 316 316 316 316 316 315 316 316 316 317 317 317 317 317 317 317 318 317 316 314 315 315 318 315 316 318 319
313 312 309 309 311 310 306 311 298 294 292 291 291 292 292 293 295 297 300 301 303 316 318 318 318 317 317 317 317 318 318 317 317 318 318 318 317 317 317 317 315 314 314 317 317 315 315 315 318
313 313 307 304 301 308 307 298 296 292 291 291 292 292 292 292 293 294 296 298 300 302 317 319 319 320 320 318 318 318 318 317 316 315 316 316 316 316 316 316 315 313 313 313 314 315 314 314 316
304 303 313 313 310 311 306 301 297 292 291 291 291 290 289 290 291 292 293 295 298 300 303 316 322 322 322 321 319 317 316 314 314 316 315 315 315 315 314 315 314 313 314 314 313 313 313 313 315
298 301 298 303 306 307 306 298 291 291 290 289 288 288 287 288 289 290 291 292 294 297 301 303 311 321 322 320 318 316 315 313 313 315 314 314 314 314 312 314 312 312 312 313 313 312 312 313 314
293 294 294 299 304 300 299 294 289 287 286 286 286 286 286 287 288 288 290 292 292 294 296 301 304 307 317 321 319 317 314 313 312 311 312 311 311 312 314 313 313 313 314 312 313 313 313 313 312
Wind_Speed
1 3 6 4 3 3 3 5 1 3 3 3 4 3 4 1 2 2 2 11 9 24 25 20 24 23 22 21 22 23 23 22 20 19 19 18 18 17 15 14 12 10 11 12 13 14 13 14 17
4 6 4 2 3 2 4 3 6 6 3 5 4 3 2 2 0 2 4 12 8 22 25 21 24 24 22 21 21 23 22 21 20 20 20 19 17 16 13 12 13 12 11 12 13 14 15 15 15
6 3 2 3 3 5 4 5 6 3 3 3 3 0 5 3 2 2 2 12 8 21 25 24 24 23 21 21 20 23 20 22 22 23 21 18 16 14 12 13 13 14 13 12 13 14 14 14 15
4 4 3 2 5 5 4 3 4 5 2 1 3 3 1 2 2 2 5 13 12 20 25 24 22 23 22 22 20 20 21 21 22 21 20 17 15 12 13 13 14 15 16 14 13 13 14 12 14
4 2 2 1 4 4 4 4 4 5 2 4 3 4 2 1 3 4 7 13 14 20 23 24 22 23 22 21 20 20 21 22 21 23 20 17 15 15 13 13 14 15 16 15 14 14 12 13 13
3 2 2 3 4 4 5 6 5 3 2 2 3 5 3 3 4 7 8 10 13 18 21 24 22 23 23 22 20 20 22 22 23 23 21 18 15 14 14 13 14 16 16 16 16 14 12 13 15
5 3 3 2 3 4 5 7 5 6 5 5 4 6 2 4 7 8 8 9 12 15 18 23 24 23 23 23 21 20 21 22 23 24 22 21 18 15 15 15 15 15 16 17 18 16 15 15 14
4 3 3 5 4 6 4 6 3 6 6 2 5 5 3 4 11 9 10 10 12 13 15 20 24 24 25 24 24 22 22 22 23 23 23 20 19 17 15 15 16 17 17 19 20 17 18 16 14
3 2 4 5 8 5 4 5 2 1 3 3 6 5 2 10 15 12 10 11 13 14 15 17 22 24 25 25 25 25 23 23 23 23 22 19 20 18 17 16 17 18 16 20 22 19 19 17 16
3 3 9 5 4 3 4 3 6 3 3 4 3 3 3 17 18 16 12 13 14 15 17 19 21 24 25 26 26 25 23 23 26 25 24 20 20 19 16 19 18 17 17 20 20 20 22 19 18
6 6 4 3 5 3 4 1 3 5 5 6 8 5 6 9 11 13 16 17 20 18 16 18 22 24 26 28 27 27 27 25 27 27 25 22 21 19 17 21 18 17 18 19 20 22 25 22 23
4 8 5 2 3 3 4 2 3 6 5 3 6 3 4 8 10 14 18 21 21 21 20 20 22 26 28 28 29 27 30 28 29 29 27 26 25 22 21 23 22 20 22 23 23 24 25 24 24
5 4 5 6 3 2 2 6 6 7 14 4 4 4 8 7 13 22 27 28 26 27 26 25 25 27 28 28 31 31 31 32 32 32 31 29 28 26 24 25 24 23 23 22 22 25 27 26 23
6 6 3 3 4 4 5 4 6 10 12 11 10 13 13 11 17 14 20 24 26 26 27 27 30 28 28 30 31 32 33 33 33 33 33 31 30 28 27 27 26 25 25 24 21 27 27 26 23
4 2 3 6 5 5 5 8 14 19 4 8 10 10 8 12 15 20 27 26 30 31 29 28 32 30 29 31 31 31 33 33 33 35 34 35 32 31 29 30 29 27 25 25 24 26 26 25 25
5 1 3 2 11 5 8 12 3 7 9 12 9 7 8 12 11 22 26 25 24 24 27 30 29 30 30 30 30 31 31 31 31 32 32 37 35 33 33 32 31 29 27 28 26 27 21 24 25
2 4 6 5 12 4 10 2 2 5 5 4 6 7 7 9 9 18 22 22 23 23 25 27 32 35 33 32 30 30 31 31 29 29 31 35 36 35 35 34 33 31 29 30 28 25 25 23 18
9 6 4 5 5 3 12 9 6 4 3 7 10 12 12 9 15 22 23 22 22 22 24 26 29 33 33 32 31 29 29 29 29 29 30 31 34 34 34 32 33 33 32 32 30 27 22 24 21
5 5 5 3 3 2 7 5 7 8 8 11 14 17 16 18 14 13 20 22 22 22 24 29 31 32 28 29 29 26 27 28 26 27 28 29 32 33 33 32 30 31 31 34 31 26 26 23 22
7 5 3 3 3 2 6 11 8 9 9 12 13 15 16 16 10 10 18 23 25 22 24 28 32 33 33 31 34 24 29 29 30 27 26 27 29 32 31 32 34 29 25 28 33 28 23 21 27
18 18 8 3 4 3 3 10 5 0 5 12 12 15 13 12 14 10 7 13 13 17 21 28 33 36 35 32 29 25 25 16 18 23 27 31 32 32 35 36 35 34 31 31 33 26 27 21 25
23 18 17 14 5 5 2 5 4 4 5 16 16 17 16 16 12 6 5 6 7 10 15 21 26 32 32 34 32 32 31 21 29 33 30 27 31 34 37 39 38 38 35 32 35 31 31 26 22
9 10 12 10 12 4 5 2 2 6 7 17 16 17 17 16 13 14 10 6 1 4 10 17 22 24 27 31 31 31 24 25 19 24 27 29 32 36 40 42 42 41 40 34 33 35 30 29 27
8 7 5 5 6 7 8 8 1 5 7 10 14 16 17 17 16 16 17 10 5 3 9 14 19 21 22 25 29 32 30 22 19 22 26 29 30 37 41 45 47 48 42 34 31 41 38 29 26
12 14 5 7 8 8 4 11 4 3 8 7 13 15 15 15 16 17 16 15 8 3 6 9 13 13 15 18 20 23 26 24 24 24 26 27 32 36 41 45 44 48 45 41 41 43 37 35 31
17 13 5 7 6 5 2 7 5 3 6 7 8 10 14 18 17 18 17 19 19 12 2 5 9 9 13 15 18 19 23 28 28 27 30 33 36 38 39 44 41 39 43 43 45 42 39 36 35
7 12 2 5 2 4 6 5 1 5 9 12 16 18 20 20 19 19 19 24 23 23 15 4 9 11 13 15 18 21 25 27 26 29 32 33 32 32 38 41 41 33 34 38 38 39 38 37 37
2 4 6 4 9 5 4 5 5 10 13 15 18 19 19 19 19 19 18 25 27 25 25 18 5 9 10 12 15 20 22 18 19 21 26 29 29 28 31 35 36 34 37 36 37 33 36 39 36
5 2 4 2 1 4 6 4 8 10 12 14 16 17 17 17 17 16 18 25 25 26 27 25 20 7 8 11 13 17 19 14 16 21 25 26 31 29 29 34 32 33 35 37 36 33 35 36 35
14 6 4 1 2 3 3 5 10 12 12 15 15 16 16 16 15 14 19 21 26 26 27 26 26 20 11 11 11 16 19 16 14 16 18 23 25 29 30 35 36 35 33 37 33 33 35 36 34
Wind_Direction
118 153 147 52 95 63 236 243 256 200 224 200 154 159 183 92 166 156 146 159 153 168 169 171 174 168 165 161 161 162 160 155 155 152 144 142 136 139 139 133 132 122 120 120 120 119 112 116 113
135 129 78 88 104 156 247 213 210 200 200 127 113 108 137 136 186 136 135 173 154 172 171 170 175 171 169 168 166 164 166 161 159 155 150 142 150 149 154 148 135 129 126 128 128 131 124 121 112
134 115 89 100 135 196 224 209 213 215 173 156 124 49 152 168 157 160 164 180 150 170 173 173 180 176 174 175 173 165 166 160 162 155 152 153 153 159 166 146 139 133 130 132 135 134 131 128 120
149 44 54 111 217 248 218 227 203 152 146 184 148 146 217 215 169 162 152 170 165 173 177 176 185 183 180 178 175 172 171 166 165 160 157 162 164 167 166 153 143 138 135 134 139 138 143 142 130
65 61 92 217 246 259 239 259 186 174 161 167 171 178 232 177 193 166 154 167 175 173 178 180 188 186 182 180 181 177 177 174 172 164 161 169 167 166 170 158 149 142 138 138 142 149 148 139 132
60 93 107 228 240 245 255 209 171 198 178 162 138 148 245 237 166 157 158 164 175 175 180 184 189 194 189 186 187 184 185 183 176 171 172 171 173 175 169 159 153 148 144 144 145 149 140 135 139
121 109 211 220 247 282 227 156 194 184 176 216 154 152 248 264 175 165 161 168 174 182 185 189 190 197 196 188 188 193 192 188 182 177 175 170 167 171 167 162 156 154 149 148 148 147 143 139 141
112 104 166 229 201 257 206 174 194 169 208 99 172 193 225 211 171 159 168 175 181 189 195 196 197 199 200 197 195 195 198 194 185 183 182 179 170 169 170 170 162 157 157 153 151 151 146 150 143
145 108 223 229 168 238 161 173 173 269 138 202 187 167 198 167 167 159 158 173 186 195 200 204 204 205 206 207 202 201 203 198 195 188 188 183 178 178 172 171 161 163 162 158 154 158 150 156 150
143 175 219 209 201 224 195 189 172 158 201 232 205 222 133 167 175 175 180 184 190 199 204 208 210 212 211 210 210 210 208 205 196 193 191 196 193 194 183 167 169 167 164 161 159 160 161 159 150
171 211 202 242 219 212 178 232 202 159 234 214 207 196 176 186 191 196 201 202 204 206 212 213 215 216 215 216 212 214 210 207 201 199 198 199 195 192 182 170 172 169 168 163 165 165 162 162 157
175 238 195 245 218 162 175 169 229 197 223 163 223 162 191 193 205 213 220 219 219 219 221 223 222 218 218 219 218 214 211 208 208 203 203 199 195 192 184 178 178 176 175 173 172 171 167 163 161
209 205 183 223 208 256 340 235 223 240 251 239 244 239 233 229 224 226 229 239 239 235 229 227 226 220 219 218 219 216 212 212 213 205 205 203 200 193 187 183 183 183 180 179 175 174 168 163 163
210 208 228 212 213 229 209 254 156 242 254 242 239 241 244 230 239 243 238 238 243 240 235 231 226 222 218 219 219 218 217 217 214 209 207 210 206 199 189 186 185 186 185 180 183 175 170 167 166
134 249 286 210 205 238 158 269 229 243 195 232 241 252 246 238 241 234 247 245 247 245 237 230 223 222 220 219 221 219 221 219 217 214 210 212 210 204 195 189 188 188 187 182 185 177 174 169 167
149 125 234 229 174 220 151 248 255 240 196 240 257 265 258 254 238 242 250 253 252 244 235 223 219 221 222 219 219 217 217 220 220 218 217 215 210 208 197 193 191 190 186 185 184 178 171 170 168
237 204 211 292 188 150 182 249 257 69 139 267 271 258 243 260 257 257 256 253 254 246 238 230 225 223 218 216 217 214 212 212 214 217 218 219 214 208 201 195 195 187 188 186 187 179 176 170 168
202 213 216 207 196 209 213 240 284 282 312 279 286 285 279 245 246 249 260 259 256 251 242 234 224 217 212 210 211 204 206 205 210 213 214 218 216 209 202 194 195 189 187 186 188 182 176 173 169
161 164 172 225 190 206 227 251 257 284 302 293 283 272 264 262 271 252 259 261 263 252 239 227 215 207 194 193 189 190 192 195 195 204 210 212 214 213 204 193 195 197 189 187 188 179 172 167 166
149 155 179 309 260 172 292 282 256 244 253 267 301 291 276 267 257 255 252 267 259 243 229 220 209 198 194 191 195 193 197 199 201 203 206 208 211 213 204 201 197 199 194 188 190 183 169 176 175
217 221 196 160 351 306 315 283 242 11 89 12 359 352 338 293 273 281 285 272 248 231 220 211 205 204 200 195 185 190 194 195 191 201 204 208 211 211 206 203 191 194 205 200 196 187 181 178 183
222 218 230 235 200 241 206 276 300 351 57 12 357 352 347 343 344 316 295 282 261 240 221 209 202 201 196 196 189 191 190 184 203 205 206 198 200 206 203 204 197 192 198 199 205 202 198 184 188
228 148 184 188 202 223 194 282 232 12 1 351 348 347 351 348 357 360 1 358 337 190 195 197 197 192 194 199 199 196 199 206 202 200 207 203 203 207 203 205 195 193 194 192 207 210 198 194 190
146 102 103 140 186 238 191 185 38 10 337 330 344 353 354 354 3 16 8 32 36 105 165 177 184 188 196 202 206 207 209 207 199 197 201 206 205 205 203 202 200 199 197 195 203 216 209 199 197
170 159 170 189 195 236 215 179 92 4 354 336 332 344 354 2 14 20 15 10 21 79 151 167 171 172 191 200 205 212 217 215 216 213 207 204 203 203 202 197 191 195 198 193 200 209 210 203 205
188 176 176 178 181 158 140 172 123 30 348 335 350 359 7 13 14 15 15 16 6 356 144 168 177 188 204 215 221 222 226 230 232 236 233 224 208 199 200 196 197 195 196 197 197 200 208 208 209
161 192 170 108 40 118 140 97 173 57 24 15 16 15 13 9 7 5 5 14 13 3 350 241 215 205 213 218 229 232 238 239 245 245 230 210 199 195 201 197 198 200 191 193 193 189 200 207 209
14 86 178 183 162 158 133 129 123 29 21 16 11 6 0 359 1 358 359 1 8 11 3 13 264 234 233 233 235 229 231 234 243 218 195 194 199 196 196 189 197 199 205 202 198 184 197 207 210
351 111 20 324 175 152 139 96 71 54 32 11 2 359 354 351 351 352 352 356 1 10 13 4 9 296 237 228 225 218 222 223 224 204 196 192 200 191 184 194 191 191 188 197 194 191 201 207 209
44 12 36 275 106 23 75 117 55 37 19 6 355 350 346 343 341 345 352 358 1 1 3 4 357 359 341 249 228 220 212 200 203 197 192 188 189 192 199 196 201 201 202 200 192 194 203 205 206